COSMOS 249 DEB, 3695

Orbit data source: Space-Track

COSMOS 249 DEB, 3695 is space debris in LEO originally from a launch on Sun, 20 Oct 1968 UTC launched from the Tyuratam Missile And Space Complex (TTMTR). Debris objects in space refer to the collection of defunct objects orbiting the Earth. Examples of debris include non-operational satellites, rocket bodies, and fragments generated from explosions, collisions, or faulty payload assembly.

Loading next visibility...
Identifier
3695, 1968-091AL
Orbit
LEO
Last TLE update
12 hours ago
Origin
Manufacturer
Unknown
Mission
Spacecraft
Bus & Motor
Unknown
Mass
Unknown
Launch date (UTC)
1968-10-20 (57 years ago)
Launch vehicle
Unknown
Launch site
Tyuratam Missile And Space Complex (TTMTR)
Object type
Payload
Rocket body
Debris
Shape & HBR
Unknown
Radar Cross Section
Small (<0.1 m²)

Expand to show TLE details & history

TLE from 12 hours ago
0 COSMOS 249 DEB
1 03695U 68091AL  25181.84354240  .00001299  00000-0  14001-2 0  9993
2 03695  62.2346  54.8253 0672938 155.5220 207.9361 13.05896200626286
Epoch: 2025-06-30T20:14Z
TLE epoch observation values (Epoch: 2025-06-30T20:14:42.063Z)
Latitude
-0.00003°
Longitude
-167.99751°
Altitude
1,700.564 km
Speed
6.811 km/s
True Right ascension
03h 39m 18s
True Declination
0° 00' 00"
Sunlit
Object was in daylight at epoch
Visualization orbit readout
Latitude
-31.5009°
Longitude
29.45672°
Altitude
970.438 km
Speed
7.5 km/s
Apparent Right ascension
13h 26m 15s
Apparent Declination
-59° 34' 12"
Sunlit
Object is in full shadow
Visualization observer readout
Local Sidereal Time
19:57:27
Azimuth
219.111° SW
Elevation
-37.3°
Doppler factor
1
Orbital elements
Apogee altitude
1,750.588 km
Perigee altitude
725.541 km
Semi-major axis
7,616.202 km
Eccentricity
0.06729
Inclination
62.2346°
RAAN
54.8253°
Arg. of periapsis
155.522°
True anomaly
Unknown
Mean anomaly
207.9361°
Eccentric anomaly
Unknown
Mean motion
3.26539 °/min
Orbital period
110.25 mins
BSTAR
0.0014001
Loading maneuver chart data...
Loading SW <> Apogee altitude chart data...

COSMOS 249 DEB Visibility forecast

Observer location: undefined°, undefined°

Span
Click to sort rows by Start time (UTC) header in descending order
Start Az.
Max El. time (UTC)
Max El. Az.
Max El.
End time (UTC)
End Az.
16 mins2025-07-01 16:32:21.749Z187.705° SSW2025-07-01 16:41:21.749Z116.024° SE36.812°2025-07-01 16:48:21.749Z47.969° ENE
14 mins2025-07-01 18:28:21.749Z244.669° WSW2025-07-01 18:35:21.749Z308.622° NW35.958°2025-07-01 18:42:21.749Z25.254° NE
6 mins2025-07-01 20:28:21.749Z309.249° NW2025-07-01 20:31:21.749Z334.266° NNW14.445°2025-07-01 20:34:21.749Z1.934° NNE
7 mins2025-07-02 00:22:21.749Z352.864° N2025-07-02 00:25:21.749Z29.637° NE19.965°2025-07-02 00:29:21.749Z82.531° E
8 mins2025-07-02 02:16:21.749Z315.6° NNW2025-07-02 02:20:21.749Z223.695° SW41.744°2025-07-02 02:24:21.749Z159.297° S
|